Preview of NWS' New Version of Forecast
This preview is not operational and should not be used for support decisions.

Regional Weather Roundup (RWR)

Issued by National Weather Service (NWS)

                            
000
ASUS45 KBOI 162110
RWRID 

IDAHO REGIONAL WEATHER ROUNDUP
NATIONAL WEATHER SERVICE BOISE ID
200 PM MST SAT FEB 16 2019

NOTE: "FAIR" INDICATES FEW OR NO CLOUDS BELOW 12000 FEET
WITH NO SIGNIFICANT WEATHER AND/OR OBSTRUCTIONS TO VISIBILITY

IDZ012-014-162200-
SOUTHWEST IDAHO

  
CITY           SKY/WX    TMP DP  RH WIND       PRES   REMARKS
BOISE          CLOUDY    39  27  62 VRB7      29.80F WCI  34          
CALDWELL       CLOUDY    40  30  67 SE8       29.81F WCI  34          
MOUNTAIN HOME  PTSUNNY   40  33  78 E9        29.80F WCI  33          
$$

IDZ016-017-162200-
SOUTHCENTRAL IDAHO

  
CITY           SKY/WX    TMP DP  RH WIND       PRES   REMARKS
BURLEY           N/A    N/A N/A N/A MISG      29.80F                  
JEROME         CLOUDY    33  25  72 W6        29.81S WCI  28          
TWIN FALLS     CLOUDY    35  22  58 SW22      29.79F WCI  23          
$$

IDZ019>023-162200-
SOUTHEAST IDAHO

  
CITY           SKY/WX    TMP DP  RH WIND       PRES   REMARKS
IDAHO FALLS    MOSUNNY   26  19  74 SW17G28   29.77S WCI  13          
POCATELLO      PTSUNNY   31  22  69 W18       29.80F WCI  19          
REXBURG        MOSUNNY   27  18  69 SW8       29.75F WCI  19          
$$

IDZ006-010-011-018-031-032-162200-
CENTRAL IDAHO MOUNTAINS

  
CITY           SKY/WX    TMP DP  RH WIND       PRES   REMARKS
MCCALL         LGT SNOW  26  23  88 SE6       29.67F VSB 1   WCI  19  
HAILEY         MOSUNNY   25  16  68 SE8       29.76F WCI  16          
STANLEY          N/A     25  15  66 N6        29.66S WCI  18          
SALMON         CLOUDY    32  21  64 N9        29.70F WCI  24          
CHALLIS        CLOUDY    30  12  47 CALM      29.68F                  
$$

IDZ002-004-006-007-026-162200-
NORTHERN IDAHO

  
CITY           SKY/WX    TMP DP  RH WIND       PRES   REMARKS
LEWISTON       CLOUDY    37  31  78 CALM      29.80F                  
LOWELL         NOT AVBL                                               
COEUR D'ALENE  CLOUDY    31  28  89 CALM      29.77S                  
MULLAN PASS    CLOUDY    24  20  84 VRB5      29.61S WCI  18          
$$